Location: Heathcote
(40.9845°N, 73.7746°W)
Time: 04:33:50
(UTC+00:00)

USA 308 - Pass Details

Date: 29 October 2020
Orbit: 571 x 578 km, 54.0° (Epoch: 23 November)

Event Time Altitude Azimuth Distance (km) Brightness Sun altitude
Rises 23:32:56 0° 312° (NW) 2,785 7.1 -19.2°
Reaches altitude 10° 23:35:14 10° 316° (NW) 1,883 6.1 -19.6°
Maximum altitude 23:39:28 60° 37° (NE) 658 2.9 -20.4°
Enters shadow 23:39:53 57° 65° (ENE) 679 2.9 -20.5°
